ZACUBE-2 (43907 NORAD) Tracking and Keplerian Element Data

This shows tracking and keplerian element data for the satellite.

Feedback or suggestion? Click here.




ElementValue
Catalog43907
NameZACUBE-2
Epoch Orbit3135
Epoch Day201.9103359
Epoch Year2019
RAAN106.2607
Inclination97.2877
Eccentricity0.0020218
Argument of Perigee235.3473
Mean Anonmoly124.5859
Mean Motion15.24209979
Decay Rate2.17E-06
L11 43907U 18111AH 19201.91033590 .00000217 00000-0 11760-4 0 9997
L22 43907 97.2877 106.2607 0020218 235.3473 124.5859 15.24209979 31351

Live tracking and technical data element details for ZACUBE-2 (NORAD 43907). ZACUBE-2 can be tracked NOW for your location showing map with azimuth and elevation plus other details from your city location.

Track the satellite on the map from your city or location and see movement details for azimuth, elevation, latitude, longitude, range, height, and movement on the map or in text.







IsCatalogInMostPopularTable: catalog: 43907, numindb: 151
Update: records affected: 1



GetName: 43907 ZACUBE-2

Hit Count: updated at: Mon, 22 Jul 2019 04:06:29 GMT